COSMOS 272

导读

COSMOS 272(宇宙272)是苏联(CIS)于1969年3月17日08:00发射的“宇宙”系列卫星,该系列是苏联大规模开展航天探索的标志性卫星项目,涵盖军事侦察、空间科学观测、技术试验等多种任务。作为冷战时期苏联航天活动的一部分,该卫星承载着特定航天试验或应用任务,体现了当时苏联在航天领域的技术发展水平,也反映了美苏太空竞赛背景下持续推进航天发射的时代特点。

Basic Information
目录编号:
3818
目录名称:
COSMOS 272
国际标识:
1969-024A
轨道中心:
EARTH
卫星名称:
COSMOS 272
卫星全名:
--
卫星状态:
在轨 (已飞行20998 天)
发射日期:
1969-03-17 UTC
国别 :
俄罗斯(独联体) (CIS)
星等 :
--
This satellite is enrolled in the Space Conjunction Data Service (SCDS) and the current flight risk assessment level is: No High Risk
Orbit Information
数据来源 国际轨道数据 AOE轨道数据
星历时间 2026-09-12T02:58:13+0800
12小时前
查看轨道信息
2026-09-10T22:00:00+0800
1天前
查看轨道信息
半长轴 7570.69km 7570.7km
偏心率 0.0019685 0.0019657
轨道倾角 73.990° 73.990°
近地点辐角 303.695° 305.561°
升交点赤经 125.860° 127.680°
平近点角 124.397° 157.363°
近地点 1177.65km 1177.681km
远地点 1207.456km 1207.445km
周期 109.260分钟 109.261分钟
每日圈数 13.17952 13.179494
Detailed Information
使用方式:
暂无
2D Orbit Map
3D Orbit Map
Orbit Altitude Analysis Chart
Orbit Inclination Analysis Chart
Orbit Comprehensive Analysis Chart
View Comprehensive Chart
Conjunction Data List
Event ID Objects TCA Miss Dist (km) Collision Risk Probability Collision Risk Index (CRI) Action
CDM_260912-175200-381805-465228
2026-09-12T
17:52:47+0000
1.757 km
极远距离
3.411508E-6 低风险 0.46
Miss Distance Evolution Trend with All Objects
Collision Probability Evolution Trend with All Objects